Location: Lawrence Hall of Science
(37.8785°N, 122.2415°W)
Time: 18:29:47
(UTC-07:00)

Daily predictions for brighter satellites

Satellite Brightness Start Highest point End
(mag) Time Altitude Azimuth Time Altitude Azimuth Time Altitude Azimuth
H-2A R/B 4.2 19:36:22 10° WSW 19:41:26 48° S 20:16:17 10° ESE
Cosmos 2360 4.5 20:11:37 10° S 20:17:05 48° ESE 20:22:35 10° NE
BREEZE-M DEB (TANK) 3.9 20:15:30 10° W 20:18:03 40° NNW 20:22:58 10° ENE
ATLAS CENTAUR R/B 1.6 20:17:25 10° NW 20:19:50 89° NE 20:25:32 10° SE
Molniya-1 3.5 20:24:02 10° S 20:25:23 22° ESE 20:26:54 10° ENE
Cosmos 1455 2.4 20:22:25 10° SSE 20:26:05 48° E 20:29:45 10° NNE
Cosmos 1869 4.2 20:27:20 10° SSE 20:30:43 28° E 20:34:08 10° NNE
Meteor 1-27 4.4 20:26:07 10° SSW 20:31:44 79° W 20:37:20 10° N
OTV 4 1.4 20:29:06 10° W 20:31:45 34° SSW 20:34:14 11° SE
SJ-6B 4.3 20:30:40 10° SSW 20:34:20 39° W 20:38:06 10° NNW
Cosmos 1400 Rocket 2.8 20:35:28 10° N 20:39:23 84° W 20:43:18 10° S
Cosmos 1697 Rocket 4.0 20:39:13 10° SW 20:44:36 45° WNW 20:50:00 10° N
Cosmos 1892 2.8 20:41:02 10° N 20:44:49 78° W 20:48:37 10° S
USA 186 1.3 20:42:36 10° SSE 20:45:10 60° ENE 20:47:57 10° N
CENTAUR R/B 3.8 20:39:32 10° WSW 20:45:17 45° NW 20:51:48 10° NNE
Milstar 3 3.5 20:37:50 10° WSW 20:45:45 41° S 20:50:56 15° ESE
Gblst 52 Del rocket 4.2 20:42:09 10° NW 20:48:02 82° SW 20:52:45 14° SE
ALOS 3.9 20:44:01 10° SSW 20:48:18 36° W 20:52:36 10° NNW
Cosmos 2026 Rocket 4.5 20:43:15 10° N 20:49:06 41° ENE 20:54:29 12° SE
H-2A R/B 3.9 20:46:49 10° S 20:50:36 46° W 20:54:22 10° NNW
Cosmos 1315 Rocket 2.8 20:47:49 10° N 20:51:54 69° E 20:55:54 10° SSE
Abrixas rocket 3.5 20:49:54 10° W 20:53:02 41° NNW 20:56:10 10° NE
Cosmos 2297 Rocket 4.2 20:49:36 10° NW 20:54:14 27° WSW 20:58:51 10° SSW
DELTA 2 R/B (1) 3.8 20:49:50 10° WNW 20:55:24 65° SSW 20:59:32 18° SE
YAOGAN 6 4.2 20:54:40 17° E 20:55:46 19° ENE 20:58:26 10° NNE
Nadezhda 4 Rocket 4.5 20:53:52 10° NNW 21:00:04 65° W 21:06:17 10° S
CZ-3B DEB 2.4 20:56:38 10° WNW 21:00:19 29° WSW 21:02:12 13° S
Cosmos 1707 Rocket 3.7 20:56:06 10° S 21:00:33 77° W 21:05:00 10° N
Cosmos 1354 Rocket 4.5 20:58:23 10° N 21:03:26 43° ENE 21:06:35 21° SE
Cosmos 2263 Rocket 3.4 20:58:51 10° N 21:03:26 25° ENE 21:06:05 18° E
Cosmos 1634 Rocket 4.0 20:58:52 10° S 21:05:09 82° E 21:11:30 10° N
Cosmos 2322 Rocket 2.2 20:59:49 10° S 21:05:15 54° ESE 21:10:43 10° NNE
Spot 2 Rocket 4.4 21:02:43 10° S 21:07:38 50° W 21:12:35 10° NNW
Cosmos 1092 Rocket 4.2 21:02:36 10° N 21:08:57 79° W 21:15:17 10° S
Meteor 1-29 2.8 21:05:36 10° NNE 21:09:06 73° E 21:12:33 10° S
Cosmos 1733 Rocket 3.8 21:05:43 10° N 21:09:50 36° ENE 21:11:35 26° ESE
Cosmos 1655 Rocket 4.3 21:05:09 10° N 21:11:22 51° E 21:15:49 19° SSE
Helios 1B rocket 2.5 21:08:07 10° N 21:12:15 82° WNW 21:16:20 10° SSW
Cosmos 1862 Rocket 4.0 21:11:07 21° SSE 21:13:32 40° E 21:17:43 10° NNE
Lacrosse 4 Rocket 2.2 21:10:21 10° N 21:14:24 38° ENE 21:16:01 28° ESE
Cosmos 2360 Rocket 3.1 21:15:51 24° ESE 21:16:28 25° ESE 21:20:58 10° NE
Cosmos 1825 2.2 21:12:57 10° N 21:16:42 57° E 21:18:16 31° SSE
Cosmos 1980 Rocket 3.6 21:11:51 10° SW 21:17:10 41° WNW 21:22:34 10° N
Cosmos 1862 3.8 21:15:02 10° N 21:18:50 40° E 21:19:52 33° ESE
CZ-4B DEB 2.6 21:20:41 33° S 21:21:55 78° WSW 21:24:58 10° NNW
Meteor 2-20 Rocket 4.4 21:17:12 10° N 21:23:20 82° E 21:28:33 15° S
Cosmos 1939 Rocket 2.8 21:21:31 25° SSE 21:23:51 84° E 21:27:54 10° N
Envisat 3.1 21:23:11 15° S 21:27:27 77° WSW 21:32:34 10° NNW
Cosmos 2242 Rocket 3.6 21:23:02 10° S 21:27:34 82° W 21:32:05 10° N
SJ-11-01 4.3 21:28:22 20° S 21:31:34 79° WSW 21:36:15 10° NNW
SL-16 R/B 2.2 21:26:34 10° SSW 21:32:15 89° WNW 21:37:57 10° NNE
SPOT 5 3.8 21:34:04 28° E 21:34:43 29° ENE 21:38:49 10° N
Intercosmos 25 Rocket 3.7 21:36:50 16° SSW 21:39:07 52° W 21:42:39 10° N
Resurs 01 Rocket 4.3 21:40:51 10° SW 21:43:37 16° W 21:46:24 10° NW
Helios 1A 4.5 21:40:06 11° SSW 21:43:42 35° W 21:47:36 10° NNW
OAO 3 Rocket 3.2 21:39:03 10° WSW 21:43:55 63° S 21:44:57 49° SE
ATLAS 5 CENTAUR R/B 3.3 21:39:56 10° NNW 21:45:23 34° NE 21:47:28 28° E
MINOTAUR IV R/B 4.5 21:41:02 10° NNW 21:45:38 82° ENE 21:46:42 53° SSE
MetOp-B 4.4 21:44:33 41° ESE 21:45:54 50° ENE 21:51:04 10° N
Cosmos 2279 Rocket 4.1 21:41:15 10° S 21:47:29 79° W 21:53:45 10° N
SEDSat Delta rocket 4.1 21:42:51 10° WSW 21:48:04 40° SSE 21:48:41 39° SSE
Meteor 1-26 Rocket 4.4 21:48:41 43° SE 21:49:59 51° E 21:55:32 10° NNE
SPOT 1/Viking Rocket 4.4 21:52:06 32° ENE 21:52:24 32° ENE 21:57:00 10° N
ARGOS 3.5 21:53:21 43° E 21:54:08 46° ENE 21:59:13 10° N
USA 234 3.4 21:54:42 34° SSE 21:57:39 64° SW 22:04:09 10° NW
Cosmos 1408 4.0 21:54:24 10° NNW 21:57:47 34° W 21:59:05 26° SW
Atlas Centaur 2 3.3 21:51:29 10° SW 21:58:23 40° SSE 21:59:34 38° SE
ERBS 3.1 21:56:28 10° NW 21:59:22 48° W 21:59:22 48° W
ERS-1 Rocket 3.1 22:02:11 44° S 22:03:43 73° WSW 22:08:45 10° NNW
Cosmos 1844 Rocket 4.3 22:03:12 10° N 22:07:05 19° NE 22:07:24 19° ENE
Sich 1 Rocket 3.6 22:04:50 10° N 22:08:57 68° NE 22:08:57 68° NE
MOS 1-B Rocket 3.9 22:16:43 60° ESE 22:17:39 69° ENE 22:23:18 10° N
SeaSat 1 2.3 22:19:46 77° ENE 22:19:46 77° ENE 22:24:43 10° NNW
H-2A R/B 3.9 22:21:27 21° NE 22:21:27 21° NE 22:23:27 10° NNE
Cosmos 2219 Rocket 4.5 22:27:00 10° NE 22:27:00 10° NE 22:27:05 10° NE
USA 245 4.2 22:23:32 68° SSE 22:24:21 89° ENE 22:29:47 10° NNW
Meteor 1-14 Rocket 4.1 22:18:55 10° N 22:24:35 75° E 22:24:46 74° E
Cosmos 1908 Rocket 3.9 22:21:43 10° NNW 22:25:26 61° NW 22:25:26 61° NW
MetOp-A 4.5 22:31:02 52° SW 22:31:49 58° W 22:37:07 10° NNW
Okean 2 Rocket 4.3 22:36:10 10° N 22:38:59 36° NNE 22:38:59 36° NNE
USA 229 DEB 3.5 22:39:03 45° SSW 22:41:22 87° ESE 22:48:20 10° NNE
USA 229 3.5 22:39:21 48° SSW 22:41:28 86° ESE 22:48:26 10° NNE
Terra 3.2 22:44:38 31° NNE 22:44:38 31° NNE 22:47:29 10° N
Meteor 1-25 Rocket 4.3 22:38:02 10° N 22:43:00 69° NNE 22:43:00 69° NNE
H-2A R/B 2.4 22:45:19 59° N 22:45:19 59° N 22:49:20 10° N
COSMOS 2428 3.7 22:46:58 36° NE 22:46:58 36° NE 22:50:19 10° NNE
Cosmos 1867 3.8 22:39:13 10° NNW 22:44:01 66° N 22:44:01 66° N
Cosmos 2263 Rocket 2.9 22:42:16 10° NW 22:47:28 42° WSW 22:47:48 41° WSW
Lacrosse 4 Rocket 3.8 22:49:50 10° WNW 22:52:23 18° W 22:52:23 18° W
Cosmos 2360 Rocket 3.3 22:57:27 25° WSW 23:00:10 42° WNW 23:05:32 10° N
Cosmos 2333 Rocket 4.0 23:28:48 24° NE 23:28:48 24° NE 23:31:00 10° NNE
CZ-4C R/B 3.8 23:23:10 10° NNW 23:29:40 36° NE 23:30:05 36° NE
ATLAS 5 CENTAUR R/B 3.4 23:24:25 10° NW 23:29:01 40° W 23:29:01 40° W
Cosmos 2237 Rocket 4.2 23:38:23 19° NE 23:38:23 19° NE 23:40:01 10° NNE
Cosmos 2278 Rocket 3.6 23:34:36 10° N 23:37:59 32° NNE 23:37:59 32° NNE
Cosmos 1844 Rocket 4.1 23:45:55 10° NNW 23:49:04 34° NW 23:49:04 34° NW
